Terminal Aerodrome Forecast
Issued by NWS Jackson, MS

Home | Current Version | Previous Version | Text Only | Print | Product List | Glossary On
Versions: 1 2 3 4 5 6 7 8 9 10 11 12 13 14 15 16 17 18 19 20
000
FTUS44 KJAN 241000 AAA
TAFHBG
TAF AMD
KHBG 241012Z 2410/2506 00000KT P6SM SCT060
     FM241500 20008KT P6SM SCT040 BKN250=

USA.gov is the U.S. government's official web portal to all federal, state and local government web resources and services.